Time,TemperatureF,DewpointF,PressureIn,WindDirection,WindDirectionDegrees,WindSpeedMPH,WindSpeedGustMPH,Humidity,HourlyPrecipIn,Conditions,Clouds,dailyrainin,SoftwareType,DateUTC
2013-08-19 00:00:00,63.8,-39.0,30.08,North,3,0.0,2.0,1,0.00,,,0.00,Wunderground v.1.15,2013-08-19 05:00:00,
2013-08-19 00:09:00,63.4,-39.2,30.08,North,4,0.0,2.0,1,0.00,,,0.00,Wunderground v.1.15,2013-08-19 05:09:00,
2013-08-19 00:19:00,63.2,-39.4,30.08,North,3,0.0,2.0,1,0.00,,,0.00,Wunderground v.1.15,2013-08-19 05:19:00,
2013-08-19 00:29:00,63.2,-39.4,30.08,North,3,0.0,2.0,1,0.00,,,0.00,Wunderground v.1.15,2013-08-19 05:29:00,
2013-08-19 00:39:00,62.6,-39.7,30.08,North,3,0.0,2.0,1,0.00,,,0.00,Wunderground v.1.15,2013-08-19 05:39:00,
2013-08-19 00:49:00,62.8,-39.6,30.08,North,3,0.0,2.0,1,0.00,,,0.00,Wunderground v.1.15,2013-08-19 05:49:00,
2013-08-19 00:59:00,62.4,-39.8,30.08,North,3,0.0,2.0,1,0.00,,,0.00,Wunderground v.1.15,2013-08-19 05:59:00,
2013-08-19 01:09:00,62.8,-39.6,30.08,North,3,0.0,2.0,1,0.00,,,0.00,Wunderground v.1.15,2013-08-19 06:09:00,
2013-08-19 01:14:00,62.6,-39.7,30.08,North,4,0.0,2.0,1,0.00,,,0.00,Wunderground v.1.15,2013-08-19 06:14:00,
2013-08-19 01:24:00,62.5,-39.8,30.08,North,3,0.0,2.0,1,0.00,,,0.00,Wunderground v.1.15,2013-08-19 06:24:00,
2013-08-19 01:34:00,62.4,-39.8,30.08,North,3,0.0,2.0,1,0.00,,,0.00,Wunderground v.1.15,2013-08-19 06:34:00,
2013-08-19 01:44:00,62.4,-39.8,30.08,North,4,0.0,2.0,1,0.00,,,0.00,Wunderground v.1.15,2013-08-19 06:44:00,
2013-08-19 01:50:00,62.2,-40.0,30.08,North,4,0.0,2.0,1,0.00,,,0.00,Wunderground v.1.15,2013-08-19 06:50:00,
2013-08-19 01:59:00,61.9,-40.1,30.07,North,3,0.0,2.0,1,0.00,,,0.00,Wunderground v.1.15,2013-08-19 06:59:00,
2013-08-19 02:09:00,61.9,-40.1,30.07,North,4,0.0,2.0,1,0.00,,,0.00,Wunderground v.1.15,2013-08-19 07:09:00,
2013-08-19 02:19:00,62.1,-40.0,30.07,North,4,0.0,2.0,1,0.00,,,0.00,Wunderground v.1.15,2013-08-19 07:19:00,
2013-08-19 02:30:00,61.8,-40.2,30.07,North,3,0.0,2.0,1,0.00,,,0.00,Wunderground v.1.15,2013-08-19 07:30:00,
2013-08-19 02:39:00,61.6,-40.3,30.07,North,3,0.0,2.0,1,0.00,,,0.00,Wunderground v.1.15,2013-08-19 07:39:00,
2013-08-19 02:49:00,61.4,-40.5,30.07,North,3,0.0,2.0,1,0.00,,,0.00,Wunderground v.1.15,2013-08-19 07:49:00,
2013-08-19 02:59:00,61.4,-40.5,30.07,North,3,0.0,2.0,1,0.00,,,0.00,Wunderground v.1.15,2013-08-19 07:59:00,
2013-08-19 03:10:00,61.3,-40.5,30.07,North,3,0.0,2.0,1,0.00,,,0.00,Wunderground v.1.15,2013-08-19 08:10:00,
2013-08-19 03:19:00,61.1,-40.6,30.07,North,4,0.0,2.0,1,0.00,,,0.00,Wunderground v.1.15,2013-08-19 08:19:00,
2013-08-19 03:29:00,61.2,-40.6,30.07,North,4,0.0,2.0,1,0.00,,,0.00,Wunderground v.1.15,2013-08-19 08:29:00,
2013-08-19 03:39:00,61.3,-40.5,30.07,North,4,0.0,2.0,1,0.00,,,0.00,Wunderground v.1.15,2013-08-19 08:39:00,
2013-08-19 03:44:00,61.2,-40.6,30.07,North,4,0.0,2.0,1,0.00,,,0.00,Wunderground v.1.15,2013-08-19 08:44:00,
2013-08-19 03:54:00,61.1,-40.6,30.06,North,3,0.0,2.0,1,0.00,,,0.00,Wunderground v.1.15,2013-08-19 08:54:00,
2013-08-19 04:04:00,60.7,-40.9,30.06,North,3,0.0,2.0,1,0.00,,,0.00,Wunderground v.1.15,2013-08-19 09:04:00,
2013-08-19 04:14:00,60.8,-40.8,30.06,North,3,0.0,2.0,1,0.00,,,0.00,Wunderground v.1.15,2013-08-19 09:14:00,
2013-08-19 04:20:00,60.8,-40.8,30.06,North,4,0.0,2.0,1,0.00,,,0.00,Wunderground v.1.15,2013-08-19 09:20:00,
2013-08-19 04:29:00,60.6,-40.9,30.06,North,4,0.0,2.0,1,0.00,,,0.00,Wunderground v.1.15,2013-08-19 09:29:00,
2013-08-19 04:39:00,60.3,-41.1,30.06,North,4,0.0,2.0,1,0.00,,,0.00,Wunderground v.1.15,2013-08-19 09:39:00,
2013-08-19 04:49:00,60.6,-40.9,30.06,North,4,0.0,2.0,1,0.00,,,0.00,Wunderground v.1.15,2013-08-19 09:49:00,
2013-08-19 05:00:00,60.5,-41.0,30.06,North,3,0.0,2.0,1,0.00,,,0.00,Wunderground v.1.15,2013-08-19 10:00:00,
2013-08-19 05:09:00,60.1,-41.2,30.06,North,3,0.0,2.0,1,0.00,,,0.00,Wunderground v.1.15,2013-08-19 10:09:00,
2013-08-19 05:19:00,60.2,-41.2,30.06,North,3,0.0,2.0,1,0.00,,,0.00,Wunderground v.1.15,2013-08-19 10:19:00,
2013-08-19 05:29:00,59.9,-41.4,30.06,North,4,0.0,2.0,1,0.00,,,0.00,Wunderground v.1.15,2013-08-19 10:29:00,
2013-08-19 05:40:00,60.4,-41.1,30.07,North,3,0.0,2.0,1,0.00,,,0.00,Wunderground v.1.15,2013-08-19 10:40:00,
2013-08-19 05:49:00,59.9,-41.4,30.07,North,3,0.0,2.0,1,0.00,,,0.00,Wunderground v.1.15,2013-08-19 10:49:00,
2013-08-19 05:59:00,59.7,-41.5,30.07,North,3,0.0,2.0,1,0.00,,,0.00,Wunderground v.1.15,2013-08-19 10:59:00,
2013-08-19 06:09:00,59.8,-41.4,30.07,North,3,0.0,2.0,1,0.00,,,0.00,Wunderground v.1.15,2013-08-19 11:09:00,
2013-08-19 06:19:00,59.5,-41.6,30.07,North,3,0.0,2.0,1,0.00,,,0.00,Wunderground v.1.15,2013-08-19 11:19:00,
2013-08-19 06:29:00,59.9,-41.4,30.07,North,4,0.0,2.0,1,0.00,,,0.00,Wunderground v.1.15,2013-08-19 11:29:00,
2013-08-19 06:39:00,59.7,-41.5,30.07,North,3,0.0,2.0,1,0.00,,,0.00,Wunderground v.1.15,2013-08-19 11:39:00,
2013-08-19 06:50:00,60.0,-41.3,30.08,North,3,0.0,2.0,1,0.00,,,0.00,Wunderground v.1.15,2013-08-19 11:50:00,
2013-08-19 06:59:00,59.8,-41.4,30.08,North,3,0.0,2.0,1,0.00,,,0.00,Wunderground v.1.15,2013-08-19 11:59:00,
2013-08-19 07:09:00,60.5,-41.0,30.08,North,3,0.0,2.0,1,0.00,,,0.00,Wunderground v.1.15,2013-08-19 12:09:00,
2013-08-19 07:19:00,61.9,-40.1,30.08,North,3,0.0,2.0,1,0.00,,,0.00,Wunderground v.1.15,2013-08-19 12:19:00,
2013-08-19 07:30:00,63.1,-39.4,30.08,North,4,0.0,2.0,1,0.00,,,0.00,Wunderground v.1.15,2013-08-19 12:30:00,
2013-08-19 07:39:00,64.1,-38.8,30.08,North,4,0.0,2.0,1,0.00,,,0.00,Wunderground v.1.15,2013-08-19 12:39:00,
2013-08-19 07:49:00,65.8,-37.8,30.08,North,3,0.0,2.0,1,0.00,,,0.00,Wunderground v.1.15,2013-08-19 12:49:00,
2013-08-19 07:59:00,66.1,-37.6,30.09,North,4,0.0,2.0,1,0.00,,,0.00,Wunderground v.1.15,2013-08-19 12:59:00,
2013-08-19 08:10:00,66.6,-37.3,30.09,NNE,32,0.0,2.0,1,0.00,,,0.00,Wunderground v.1.15,2013-08-19 13:10:00,
2013-08-19 08:19:00,68.4,-36.2,30.09,NNE,32,0.0,2.0,1,0.00,,,0.00,Wunderground v.1.15,2013-08-19 13:19:00,
2013-08-19 08:29:00,70.0,-35.2,30.09,NNE,33,0.0,2.0,1,0.00,,,0.00,Wunderground v.1.15,2013-08-19 13:29:00,
2013-08-19 08:39:00,71.0,-34.6,30.09,NE,41,0.0,2.0,1,0.00,,,0.00,Wunderground v.1.15,2013-08-19 13:39:00,
2013-08-19 08:49:00,73.2,-33.3,30.09,ESE,114,0.0,2.0,1,0.00,,,0.00,Wunderground v.1.15,2013-08-19 13:49:00,
2013-08-19 08:59:00,74.2,-32.7,30.09,NE,46,0.0,2.0,1,0.00,,,0.00,Wunderground v.1.15,2013-08-19 13:59:00,
2013-08-19 09:09:00,75.1,-32.1,30.09,NE,35,0.0,2.0,1,0.00,,,0.00,Wunderground v.1.15,2013-08-19 14:09:00,
2013-08-19 09:20:00,75.9,-31.6,30.09,NNE,28,0.0,2.0,1,0.00,,,0.00,Wunderground v.1.15,2013-08-19 14:20:00,
2013-08-19 09:29:00,76.4,-31.3,30.09,NE,41,0.0,2.0,1,0.00,,,0.00,Wunderground v.1.15,2013-08-19 14:29:00,
2013-08-19 09:39:00,76.4,-31.3,30.09,ESE,123,0.0,2.0,1,0.00,,,0.00,Wunderground v.1.15,2013-08-19 14:39:00,
2013-08-19 09:49:00,77.3,-30.8,30.09,ESE,105,0.0,2.0,1,0.00,,,0.00,Wunderground v.1.15,2013-08-19 14:49:00,
2013-08-19 10:00:00,78.7,-30.0,30.09,NNE,20,0.0,2.0,1,0.00,,,0.00,Wunderground v.1.15,2013-08-19 15:00:00,
2013-08-19 10:09:00,78.3,23.4,30.09,NNE,30,0.0,2.0,13,0.00,,,0.00,Wunderground v.1.15,2013-08-19 15:09:00,
2013-08-19 10:15:00,79.1,-29.7,30.09,ESE,119,0.0,2.0,1,0.00,,,0.00,Wunderground v.1.15,2013-08-19 15:15:00,
2013-08-19 10:24:00,80.2,28.3,30.09,West,276,0.0,2.0,15,0.00,,,0.00,Wunderground v.1.15,2013-08-19 15:24:00,
2013-08-19 10:34:00,81.0,36.1,30.09,SSW,197,0.0,2.0,20,0.00,,,0.00,Wunderground v.1.15,2013-08-19 15:34:00,
2013-08-19 10:44:00,81.1,46.7,30.09,East,82,0.0,2.0,30,0.00,,,0.00,Wunderground v.1.15,2013-08-19 15:44:00,
2013-08-19 10:55:00,82.0,48.4,30.09,WNW,289,0.0,2.0,31,0.00,,,0.00,Wunderground v.1.15,2013-08-19 15:55:00,
2013-08-19 11:04:00,81.5,54.2,30.09,SE,132,0.0,2.0,39,0.00,,,0.00,Wunderground v.1.15,2013-08-19 16:04:00,
2013-08-19 11:14:00,82.4,52.8,30.08,East,93,0.0,2.0,36,0.00,,,0.00,Wunderground v.1.15,2013-08-19 16:14:00,
2013-08-19 11:24:00,82.5,48.8,30.08,SW,215,0.0,2.0,31,0.00,,,0.00,Wunderground v.1.15,2013-08-19 16:24:00,
2013-08-19 11:34:00,82.3,52.7,30.08,NNW,345,0.0,2.0,36,0.00,,,0.00,Wunderground v.1.15,2013-08-19 16:34:00,
2013-08-19 11:39:00,82.7,47.2,30.08,ESE,104,0.0,2.0,29,0.00,,,0.00,Wunderground v.1.15,2013-08-19 16:39:00,
2013-08-19 11:45:00,82.3,56.9,30.08,NNE,18,0.0,2.0,42,0.00,,,0.00,Wunderground v.1.15,2013-08-19 16:45:00,
2013-08-19 11:54:00,81.4,51.1,30.08,East,96,1.0,3.0,35,0.00,,,0.00,Wunderground v.1.15,2013-08-19 16:54:00,
2013-08-19 12:04:00,80.6,50.4,30.08,SW,214,0.0,2.0,35,0.00,,,0.00,Wunderground v.1.15,2013-08-19 17:04:00,
2013-08-19 12:14:00,82.5,50.5,30.08,NE,48,0.0,3.0,33,0.00,,,0.00,Wunderground v.1.15,2013-08-19 17:14:00,
2013-08-19 12:19:00,83.0,48.4,30.08,SW,233,0.0,2.0,30,0.00,,,0.00,Wunderground v.1.15,2013-08-19 17:19:00,
2013-08-19 12:24:00,83.7,55.4,30.08,ENE,70,0.0,2.0,38,0.00,,,0.00,Wunderground v.1.15,2013-08-19 17:24:00,
2013-08-19 12:34:00,83.6,54.6,30.07,ESE,104,0.0,2.0,37,0.00,,,0.00,Wunderground v.1.15,2013-08-19 17:34:00,
2013-08-19 12:44:00,82.1,55.4,30.07,ENE,58,2.0,2.0,40,0.00,,,0.00,Wunderground v.1.15,2013-08-19 17:44:00,
2013-08-19 12:54:00,82.1,56.7,30.07,ESE,103,0.0,2.0,42,0.00,,,0.00,Wunderground v.1.15,2013-08-19 17:54:00,
2013-08-19 13:04:00,83.2,56.4,30.06,SSE,153,0.0,2.0,40,0.00,,,0.00,Wunderground v.1.15,2013-08-19 18:04:00,
2013-08-19 13:10:00,84.2,60.6,30.06,NNE,33,0.0,2.0,45,0.00,,,0.00,Wunderground v.1.15,2013-08-19 18:10:00,
2013-08-19 13:19:00,84.5,55.4,30.06,WSW,245,2.0,2.0,37,0.00,,,0.00,Wunderground v.1.15,2013-08-19 18:19:00,
2013-08-19 13:29:00,82.7,53.8,30.06,SE,132,0.0,2.0,37,0.00,,,0.00,Wunderground v.1.15,2013-08-19 18:29:00,
2013-08-19 13:39:00,83.6,58.7,30.05,North,352,0.0,2.0,43,0.00,,,0.00,Wunderground v.1.15,2013-08-19 18:39:00,
2013-08-19 13:49:00,85.0,60.6,30.05,NNE,25,0.0,2.0,44,0.00,,,0.00,Wunderground v.1.15,2013-08-19 18:49:00,
2013-08-19 13:54:00,85.2,62.7,30.05,North,353,0.0,2.0,47,0.00,,,0.00,Wunderground v.1.15,2013-08-19 18:54:00,
2013-08-19 14:04:00,85.4,61.6,30.05,SE,145,1.0,3.0,45,0.00,,,0.00,Wunderground v.1.15,2013-08-19 19:04:00,
2013-08-19 14:14:00,86.1,63.5,30.04,SSE,150,0.0,2.0,47,0.00,,,0.00,Wunderground v.1.15,2013-08-19 19:14:00,
2013-08-19 14:24:00,85.7,62.5,30.04,WNW,283,1.0,3.0,46,0.00,,,0.00,Wunderground v.1.15,2013-08-19 19:24:00,
2013-08-19 14:30:00,85.4,61.0,30.04,ESE,110,1.0,1.0,44,0.00,,,0.00,Wunderground v.1.15,2013-08-19 19:30:00,
2013-08-19 14:39:00,85.3,62.2,30.03,SW,221,0.0,2.0,46,0.00,,,0.00,Wunderground v.1.15,2013-08-19 19:39:00,
2013-08-19 14:49:00,85.3,62.2,30.03,ESE,111,0.0,2.0,46,0.00,,,0.00,Wunderground v.1.15,2013-08-19 19:49:00,
2013-08-19 14:59:00,84.8,61.1,30.03,SE,134,0.0,2.0,45,0.00,,,0.00,Wunderground v.1.15,2013-08-19 19:59:00,
2013-08-19 15:09:00,85.3,63.4,30.02,NE,50,1.0,1.0,48,0.00,,,0.00,Wunderground v.1.15,2013-08-19 20:09:00,
2013-08-19 15:14:00,85.1,61.4,30.02,East,98,1.0,2.0,45,0.00,,,0.00,Wunderground v.1.15,2013-08-19 20:14:00,
2013-08-19 15:19:00,85.4,62.3,30.02,ESE,110,0.0,2.0,46,0.00,,,0.00,Wunderground v.1.15,2013-08-19 20:19:00,
2013-08-19 15:29:00,86.1,62.9,30.02,East,79,0.0,2.0,46,0.00,,,0.00,Wunderground v.1.15,2013-08-19 20:29:00,
2013-08-19 15:39:00,84.3,61.3,30.01,NE,36,0.0,2.0,46,0.00,,,0.00,Wunderground v.1.15,2013-08-19 20:39:00,
2013-08-19 15:50:00,84.9,62.4,30.01,SE,136,0.0,2.0,47,0.00,,,0.00,Wunderground v.1.15,2013-08-19 20:50:00,
2013-08-19 15:59:00,85.6,61.2,30.01,ESE,113,0.0,2.0,44,0.00,,,0.00,Wunderground v.1.15,2013-08-19 20:59:00,
2013-08-19 16:09:00,85.0,60.6,30.01,NE,53,0.0,2.0,44,0.00,,,0.00,Wunderground v.1.15,2013-08-19 21:09:00,
2013-08-19 16:19:00,84.5,53.8,30.00,SSE,155,0.0,2.0,35,0.00,,,0.00,Wunderground v.1.15,2013-08-19 21:19:00,
2013-08-19 16:29:00,85.3,62.8,30.00,ESE,118,0.0,2.0,47,0.00,,,0.00,Wunderground v.1.15,2013-08-19 21:29:00,
2013-08-19 16:34:00,85.4,62.9,30.00,East,100,0.0,2.0,47,0.00,,,0.00,Wunderground v.1.15,2013-08-19 21:34:00,
2013-08-19 16:44:00,86.2,64.2,30.00,SW,229,0.0,2.0,48,0.00,,,0.00,Wunderground v.1.15,2013-08-19 21:44:00,
2013-08-19 16:54:00,86.2,63.0,29.99,South,177,0.0,2.0,46,0.00,,,0.00,Wunderground v.1.15,2013-08-19 21:54:00,
2013-08-19 17:04:00,86.1,64.1,29.99,NE,46,0.0,2.0,48,0.00,,,0.00,Wunderground v.1.15,2013-08-19 22:04:00,
2013-08-19 17:10:00,86.1,60.3,29.99,NE,44,0.0,2.0,42,0.00,,,0.00,Wunderground v.1.15,2013-08-19 22:10:00,
2013-08-19 17:19:00,85.9,63.9,29.99,East,95,0.0,2.0,48,0.00,,,0.00,Wunderground v.1.15,2013-08-19 22:19:00,
2013-08-19 17:29:00,86.0,63.4,29.99,SE,141,0.0,2.0,47,0.00,,,0.00,Wunderground v.1.15,2013-08-19 22:29:00,
2013-08-19 17:39:00,85.1,62.6,29.99,SE,142,0.0,2.0,47,0.00,,,0.00,Wunderground v.1.15,2013-08-19 22:39:00,
2013-08-19 17:50:00,84.7,62.2,29.99,East,87,0.0,2.0,47,0.00,,,0.00,Wunderground v.1.15,2013-08-19 22:50:00,
2013-08-19 17:59:00,84.2,61.2,29.98,North,1,0.0,2.0,46,0.00,,,0.00,Wunderground v.1.15,2013-08-19 22:59:00,
2013-08-19 18:09:00,83.9,57.7,29.98,SE,138,0.0,2.0,41,0.00,,,0.00,Wunderground v.1.15,2013-08-19 23:09:00,
2013-08-19 18:19:00,84.0,58.4,29.98,SE,126,0.0,2.0,42,0.00,,,0.00,Wunderground v.1.15,2013-08-19 23:19:00,
2013-08-19 18:30:00,82.9,56.8,29.98,SE,141,0.0,2.0,41,0.00,,,0.00,Wunderground v.1.15,2013-08-19 23:30:00,
2013-08-19 18:39:00,81.7,55.0,29.98,SE,141,0.0,2.0,40,0.00,,,0.00,Wunderground v.1.15,2013-08-19 23:39:00,
2013-08-19 18:49:00,80.8,47.3,29.98,SE,142,0.0,2.0,31,0.00,,,0.00,Wunderground v.1.15,2013-08-19 23:49:00,
2013-08-19 18:59:00,79.8,29.6,29.98,SE,142,0.0,2.0,16,0.00,,,0.00,Wunderground v.1.15,2013-08-19 23:59:00,
2013-08-19 19:04:00,79.1,6.3,29.98,SE,142,0.0,2.0,6,0.00,,,0.00,Wunderground v.1.15,2013-08-20 00:04:00,
2013-08-19 19:14:00,77.9,-30.4,29.98,SE,142,0.0,2.0,1,0.00,,,0.00,Wunderground v.1.15,2013-08-20 00:14:00,
2013-08-19 19:24:00,76.6,-31.2,29.98,SE,143,0.0,2.0,1,0.00,,,0.00,Wunderground v.1.15,2013-08-20 00:24:00,
2013-08-19 19:34:00,75.4,-31.9,29.98,SE,142,0.0,2.0,1,0.00,,,0.00,Wunderground v.1.15,2013-08-20 00:34:00,
2013-08-19 19:40:00,74.8,-32.3,29.99,SE,142,0.0,2.0,1,0.00,,,0.00,Wunderground v.1.15,2013-08-20 00:40:00,
2013-08-19 19:49:00,73.8,-32.9,29.99,SE,142,0.0,2.0,1,0.00,,,0.00,Wunderground v.1.15,2013-08-20 00:49:00,
2013-08-19 19:59:00,73.1,-33.3,29.99,SE,142,0.0,2.0,1,0.00,,,0.00,Wunderground v.1.15,2013-08-20 00:59:00,
2013-08-19 20:09:00,72.4,-33.8,29.99,SE,142,0.0,2.0,1,0.00,,,0.00,Wunderground v.1.15,2013-08-20 01:09:00,
2013-08-19 20:20:00,71.1,-34.5,29.99,SE,142,0.0,2.0,1,0.00,,,0.00,Wunderground v.1.15,2013-08-20 01:20:00,
2013-08-19 20:29:00,70.2,-35.1,29.99,SE,142,0.0,2.0,1,0.00,,,0.00,Wunderground v.1.15,2013-08-20 01:29:00,
2013-08-19 20:39:00,69.3,-35.6,29.99,SE,142,0.0,2.0,1,0.00,,,0.00,Wunderground v.1.15,2013-08-20 01:39:00,
2013-08-19 20:49:00,68.5,-36.1,29.99,SE,142,0.0,2.0,1,0.00,,,0.00,Wunderground v.1.15,2013-08-20 01:49:00,
2013-08-19 21:00:00,68.5,-36.1,30.00,SE,142,0.0,2.0,1,0.00,,,0.00,Wunderground v.1.15,2013-08-20 02:00:00,
2013-08-19 21:09:00,68.8,-35.9,30.00,SE,142,0.0,2.0,1,0.00,,,0.00,Wunderground v.1.15,2013-08-20 02:09:00,
2013-08-19 21:19:00,68.1,-36.4,30.00,SE,142,0.0,2.0,1,0.00,,,0.00,Wunderground v.1.15,2013-08-20 02:19:00,
2013-08-19 21:29:00,67.4,-36.8,30.01,SE,142,0.0,2.0,1,0.00,,,0.00,Wunderground v.1.15,2013-08-20 02:29:00,
2013-08-19 21:39:00,67.7,-36.6,30.01,SE,142,0.0,2.0,1,0.00,,,0.00,Wunderground v.1.15,2013-08-20 02:39:00,
2013-08-19 21:49:00,67.3,-36.9,30.01,SE,142,0.0,2.0,1,0.00,,,0.00,Wunderground v.1.15,2013-08-20 02:49:00,
2013-08-19 21:59:00,66.7,-37.2,30.01,SE,142,0.0,2.0,1,0.00,,,0.00,Wunderground v.1.15,2013-08-20 02:59:00,
2013-08-19 22:10:00,66.6,-37.3,30.01,SE,142,0.0,2.0,1,0.00,,,0.00,Wunderground v.1.15,2013-08-20 03:10:00,
2013-08-19 22:19:00,66.5,-37.3,30.02,SE,142,0.0,2.0,1,0.00,,,0.00,Wunderground v.1.15,2013-08-20 03:19:00,
2013-08-19 22:29:00,66.7,-37.2,30.02,SE,142,0.0,2.0,1,0.00,,,0.00,Wunderground v.1.15,2013-08-20 03:29:00,
2013-08-19 22:39:00,66.7,-37.2,30.02,SE,142,0.0,2.0,1,0.00,,,0.00,Wunderground v.1.15,2013-08-20 03:39:00,
2013-08-19 22:50:00,66.9,-37.1,30.02,SE,142,0.0,2.0,1,0.00,,,0.00,Wunderground v.1.15,2013-08-20 03:50:00,
2013-08-19 22:59:00,67.3,-36.9,30.02,SSW,197,0.0,2.0,1,0.00,,,0.00,Wunderground v.1.15,2013-08-20 03:59:00,
2013-08-19 23:04:00,67.3,-36.9,30.02,SSW,197,0.0,2.0,1,0.00,,,0.00,Wunderground v.1.15,2013-08-20 04:04:00,
2013-08-19 23:09:00,67.1,-37.0,30.02,SSW,197,0.0,2.0,1,0.00,,,0.00,Wunderground v.1.15,2013-08-20 04:09:00,
2013-08-19 23:19:00,66.7,-37.2,30.02,SSW,197,0.0,2.0,1,0.00,,,0.00,Wunderground v.1.15,2013-08-20 04:19:00,
2013-08-19 23:30:00,66.4,-37.4,30.02,SSW,196,0.0,2.0,1,0.00,,,0.00,Wunderground v.1.15,2013-08-20 04:30:00,
2013-08-19 23:39:00,66.4,-37.4,30.02,SSW,197,0.0,2.0,1,0.00,,,0.00,Wunderground v.1.15,2013-08-20 04:39:00,
2013-08-19 23:44:00,66.4,-37.4,30.02,SSW,197,0.0,2.0,1,0.00,,,0.00,Wunderground v.1.15,2013-08-20 04:44:00,
2013-08-19 23:54:00,66.1,-37.6,30.02,SSW,197,0.0,2.0,1,0.00,,,0.00,Wunderground v.1.15,2013-08-20 04:54:00,